Regional Weather Roundup
Issued by NWS

Home | Current Version | Previous Version | Graphics & Text | Print | Product List | Glossary On
Versions: 1 2 3 4 5 6 7 8 9 10 11 12 13 14 15 16 17 18 19 20 21 22 23 24 25 26 27 28 29 30 31 32 33 34 35 36 37 38 39 40 41 42 43 44 45 46 47 48 49 50
389
ASUS45 KCYS 011210
RWRWY

WYOMING REGIONAL WEATHER ROUNDUP
NATIONAL WEATHER SERVICE CHEYENNE WY
600 AM MDT SUN MAY 01 2016

NOTE:  "FAIR" INDICATES FEW OR NO CLOUDS BELOW 12,000 FEET
WITH NO SIGNIFICANT WEATHER AND/OR OBSTRUCTIONS TO VISIBILITY.

WYZ001-011300-
YELLOWSTONE NATIONAL PARK

CITY           SKY/WX    TMP DP  RH WIND       PRES   REMARKS
LK YELLOWSTONE   N/A     29  20  69 CALM      30.30R
6HR MIN TEMP:  28; 6HR MAX TEMP:  31;

W YELLOWSTONE  NOT AVBL

$$
WYZ002>013-054>058-071-098>099-011300-
NORTHERN WYOMING

CITY           SKY/WX    TMP DP  RH WIND       PRES   REMARKS
JACKSON        FAIR      36  21  55 N15       30.24R WCI  26
CODY           CLOUDY    37  34  87 N5        30.31S WCI  34
GREYBULL       CLOUDY    35  31  85 CALM      30.30R
6HR MIN TEMP:  33; 6HR MAX TEMP:  43;

WORLAND        CLOUDY    37  34  89 S7        30.30R WCI  32
6HR MIN TEMP:  35; 6HR MAX TEMP:  43;

SHERIDAN       CLOUDY    38  34  85 CALM      30.33R
6HR MIN TEMP:  36; 6HR MAX TEMP:  43;

BUFFALO          N/A    N/A N/A N/A MISG      30.33R
GILLETTE       CLOUDY    30  28  92 CALM      30.32R
6HR MIN TEMP:  26; 6HR MAX TEMP:  35;

HULETT         FAIR      32  27  80 CALM      30.33R
NEWCASTLE      FAIR      32  25  74 N6        30.30R WCI  26

$$
WYZ014>020-022>026-101>103-011300-
CENTRAL WYOMING

CITY           SKY/WX    TMP DP  RH WIND       PRES   REMARKS
BIG PINEY      FAIR      24  21  88 NW7       30.23S WCI  16
6HR MIN TEMP:  23; 6HR MAX TEMP:  32;

PINEDALE       FAIR      27  27 100 NW7       30.23S WCI  19
DUBOIS         NOT AVBL
LANDER         MOCLDY    34  30  85 CALM      30.28R
6HR MIN TEMP:  33; 6HR MAX TEMP:  37;

RIVERTON       FAIR      35  30  82 N3        30.30R
6HR MIN TEMP:  33; 6HR MAX TEMP:  36;

CASPER         CLOUDY    31  27  85 N6        30.30R WCI  25
6HR MIN TEMP:  31; 6HR MAX TEMP:  36;

DOUGLAS        MOCLDY    30  26  85 W3        30.30R
6HR MIN TEMP:  27; 6HR MAX TEMP:  35;


$$
WYZ021-027>030-104>119-011300-
SOUTHERN WYOMING

CITY           SKY/WX    TMP DP  RH WIND       PRES   REMARKS
EVANSTON       CLOUDY    32  24  72 E21G29    30.15S WCI  20
6HR MIN TEMP:  32; 6HR MAX TEMP:  33;

KEMMERER       FAIR      30  27  86 E16G23    30.20R WCI  19
FORT BRIDGER   CLOUDY    32  32 100 E16       30.22S WCI  21
ROCK SPRINGS   FAIR      32  25  75 E25G35    30.20F WCI  19
6HR MIN TEMP:  32; 6HR MAX TEMP:  34;

DIXON          PTSUNNY   32  23  70 N13       30.20S WCI  22
RAWLINS        FAIR      29  22  75 NE13      30.24R WCI  19
6HR MIN TEMP:  29; 6HR MAX TEMP:  31;

SARATOGA       CLOUDY    32  23  69 NE9G16    30.23S WCI  24
LARAMIE        CLOUDY    26  23  88 NE7       30.24R WCI  18
6HR MIN TEMP:  25; 6HR MAX TEMP:  28; 6HR PCP:  0.02;

CHEYENNE       CLOUDY    30  27  88 N13       30.25R WCI  20
6HR MIN TEMP:  30; 6HR MAX TEMP:  31; 6HR PCP: TRACE;

TORRINGTON     CLOUDY    36  31  82 N7        30.26R WCI  30
6HR MIN TEMP:  36; 6HR MAX TEMP:  38;

PINE BLUFFS    CLOUDY    32  32 100 N17       30.25R WCI  21

$$




USA.gov is the U.S. government's official web portal to all federal, state and local government web resources and services.